Time,TemperatureF,DewpointF,PressureIn,WindDirection,WindDirectionDegrees,WindSpeedMPH,WindSpeedGustMPH,Humidity,HourlyPrecipIn,Conditions,Clouds,dailyrainin,SoftwareType,DateUTC
2013-05-17 00:03:00,61.0,40.0,-100.00,ENE,65,2.0,7.0,46,0.00,,,-99.99,,2013-05-17 04:03:00,
2013-05-17 00:13:00,61.0,40.0,-100.00,NNW,340,1.0,5.0,47,0.00,,,-99.99,,2013-05-17 04:13:00,
2013-05-17 00:23:00,60.0,41.0,-100.00,North,0,2.0,7.0,49,0.00,,,-99.99,,2013-05-17 04:23:00,
2013-05-17 00:34:00,59.0,40.0,-100.00,ENE,60,2.0,6.0,49,0.00,,,-99.99,,2013-05-17 04:34:00,
2013-05-17 00:43:00,59.0,40.0,-100.00,North,5,1.0,6.0,50,0.00,,,-99.99,,2013-05-17 04:43:00,
2013-05-17 00:53:00,58.0,41.0,-100.00,NE,45,1.0,4.0,52,0.00,,,-99.99,,2013-05-17 04:53:00,
2013-05-17 01:03:00,58.0,41.0,-100.00,ENE,65,2.0,7.0,52,0.00,,,-99.99,,2013-05-17 05:03:00,
2013-05-17 01:14:00,58.0,40.0,-100.00,NNE,20,2.0,8.0,52,0.00,,,-99.99,,2013-05-17 05:14:00,
2013-05-17 01:22:00,57.0,40.0,-100.00,East,80,2.0,8.0,52,0.00,,,-99.99,,2013-05-17 05:22:00,
2013-05-17 01:32:00,57.0,40.0,-100.00,NNW,335,4.0,8.0,52,0.00,,,-99.99,,2013-05-17 05:32:00,
2013-05-17 01:43:00,57.0,40.0,-100.00,NE,55,2.0,7.0,52,0.00,,,-99.99,,2013-05-17 05:43:00,
2013-05-17 01:52:00,57.0,40.0,-100.00,North,355,2.0,7.0,52,0.00,,,-99.99,,2013-05-17 05:52:00,
2013-05-17 02:02:00,56.0,40.0,-100.00,ENE,65,1.0,7.0,53,0.00,,,-99.99,,2013-05-17 06:02:00,
2013-05-17 02:11:00,57.0,40.0,-100.00,NW,325,3.0,7.0,52,0.00,,,-99.99,,2013-05-17 06:11:00,
2013-05-17 02:22:00,56.0,40.0,-100.00,NW,325,3.0,6.0,53,0.00,,,-99.99,,2013-05-17 06:22:00,
2013-05-17 02:32:00,56.0,40.0,-100.00,North,0,2.0,6.0,55,0.00,,,-99.99,,2013-05-17 06:32:00,
2013-05-17 02:42:00,56.0,40.0,-100.00,North,10,3.0,6.0,55,0.00,,,-99.99,,2013-05-17 06:42:00,
2013-05-17 02:52:00,55.0,40.0,-100.00,NW,325,2.0,11.0,56,0.00,,,-99.99,,2013-05-17 06:52:00,
2013-05-17 03:03:00,55.0,40.0,-100.00,NNW,330,4.0,9.0,56,0.00,,,-99.99,,2013-05-17 07:03:00,
2013-05-17 03:11:00,55.0,40.0,-100.00,North,0,2.0,9.0,57,0.00,,,-99.99,,2013-05-17 07:11:00,
2013-05-17 03:21:00,55.0,40.0,-100.00,NNW,345,3.0,6.0,57,0.00,,,-99.99,,2013-05-17 07:21:00,
2013-05-17 03:32:00,54.0,41.0,-100.00,NNW,345,2.0,5.0,59,0.00,,,-99.99,,2013-05-17 07:32:00,
2013-05-17 03:43:00,54.0,40.0,-100.00,NW,315,3.0,6.0,59,0.00,,,-99.99,,2013-05-17 07:43:00,
2013-05-17 03:53:00,54.0,41.0,-100.00,NW,320,3.0,7.0,60,0.00,,,-99.99,,2013-05-17 07:53:00,
2013-05-17 04:02:00,54.0,41.0,-100.00,NW,320,5.0,7.0,61,0.00,,,-99.99,,2013-05-17 08:02:00,
2013-05-17 04:12:00,54.0,41.0,-100.00,NNW,330,3.0,7.0,60,0.00,,,-99.99,,2013-05-17 08:12:00,
2013-05-17 04:23:00,53.0,41.0,-100.00,North,0,3.0,7.0,63,0.00,,,-99.99,,2013-05-17 08:23:00,
2013-05-17 04:34:00,52.0,41.0,-100.00,North,5,2.0,7.0,64,0.00,,,-99.99,,2013-05-17 08:34:00,
2013-05-17 04:42:00,53.0,40.0,-100.00,NNW,330,6.0,9.0,61,0.00,,,-99.99,,2013-05-17 08:42:00,
2013-05-17 04:52:00,52.0,40.0,-100.00,NNE,15,2.0,7.0,64,0.00,,,-99.99,,2013-05-17 08:52:00,
2013-05-17 05:02:00,52.0,40.0,-100.00,NW,320,2.0,9.0,63,0.00,,,-99.99,,2013-05-17 09:02:00,
2013-05-17 05:12:00,53.0,39.0,-100.00,NE,45,3.0,11.0,60,0.00,,,-99.99,,2013-05-17 09:12:00,
2013-05-17 05:23:00,52.0,39.0,-100.00,NNE,15,4.0,14.0,59,0.00,,,-99.99,,2013-05-17 09:23:00,
2013-05-17 05:33:00,52.0,39.0,-100.00,North,5,2.0,9.0,60,0.00,,,-99.99,,2013-05-17 09:33:00,
2013-05-17 05:42:00,52.0,39.0,-100.00,North,0,4.0,11.0,60,0.00,,,-99.99,,2013-05-17 09:42:00,
2013-05-17 05:53:00,52.0,39.0,-100.00,NNW,330,7.0,11.0,60,0.00,,,-99.99,,2013-05-17 09:53:00,
2013-05-17 06:03:00,52.0,39.0,-100.00,NNW,340,8.0,14.0,60,0.00,,,-99.99,,2013-05-17 10:03:00,
2013-05-17 06:12:00,51.0,39.0,-100.00,NW,325,2.0,11.0,63,0.00,,,-99.99,,2013-05-17 10:12:00,
2013-05-17 06:23:00,51.0,39.0,-100.00,ENE,60,1.0,9.0,63,0.00,,,-99.99,,2013-05-17 10:23:00,
2013-05-17 06:33:00,51.0,39.0,-100.00,East,90,2.0,12.0,62,0.00,,,-99.99,,2013-05-17 10:33:00,
2013-05-17 06:42:00,51.0,38.0,-100.00,North,5,6.0,13.0,59,0.00,,,-99.99,,2013-05-17 10:42:00,
2013-05-17 06:53:00,52.0,38.0,-100.00,NNW,335,6.0,13.0,59,0.00,,,-99.99,,2013-05-17 10:53:00,
2013-05-17 07:02:00,52.0,38.0,-100.00,NW,320,4.0,16.0,58,0.00,,,-99.99,,2013-05-17 11:02:00,
2013-05-17 07:12:00,52.0,37.0,-100.00,North,350,5.0,14.0,57,0.00,,,-99.99,,2013-05-17 11:12:00,
2013-05-17 07:23:00,52.0,37.0,-100.00,NNW,335,6.0,18.0,57,0.00,,,-99.99,,2013-05-17 11:23:00,
2013-05-17 07:34:00,52.0,37.0,-100.00,NE,35,5.0,12.0,56,0.00,,,-99.99,,2013-05-17 11:34:00,
2013-05-17 07:42:00,53.0,37.0,-100.00,North,0,5.0,15.0,55,0.00,,,-99.99,,2013-05-17 11:42:00,
2013-05-17 07:53:00,53.0,37.0,-100.00,North,355,4.0,16.0,55,0.00,,,-99.99,,2013-05-17 11:53:00,
2013-05-17 08:03:00,53.0,37.0,-100.00,ENE,70,4.0,10.0,53,0.00,,,-99.99,,2013-05-17 12:03:00,
2013-05-17 08:12:00,54.0,37.0,-100.00,NNW,330,6.0,15.0,52,0.00,,,-99.99,,2013-05-17 12:12:00,
2013-05-17 08:23:00,54.0,37.0,-100.00,ENE,65,7.0,17.0,52,0.00,,,-99.99,,2013-05-17 12:23:00,
2013-05-17 08:33:00,54.0,37.0,-100.00,NE,55,5.0,14.0,52,0.00,,,-99.99,,2013-05-17 12:33:00,
2013-05-17 08:43:00,55.0,38.0,-100.00,North,5,5.0,17.0,52,0.00,,,-99.99,,2013-05-17 12:43:00,
2013-05-17 08:53:00,55.0,38.0,-100.00,ENE,70,6.0,15.0,52,0.00,,,-99.99,,2013-05-17 12:53:00,
2013-05-17 09:04:00,56.0,38.0,-100.00,North,0,3.0,12.0,51,0.00,,,-99.99,,2013-05-17 13:04:00,
2013-05-17 09:12:00,56.0,38.0,-100.00,ENE,75,6.0,16.0,49,0.00,,,-99.99,,2013-05-17 13:12:00,
2013-05-17 09:23:00,57.0,38.0,-100.00,ENE,65,5.0,16.0,50,0.00,,,-99.99,,2013-05-17 13:23:00,
2013-05-17 09:33:00,57.0,38.0,-100.00,ENE,65,4.0,15.0,50,0.00,,,-99.99,,2013-05-17 13:33:00,
2013-05-17 09:42:00,56.0,38.0,-100.00,ENE,60,6.0,17.0,49,0.00,,,-99.99,,2013-05-17 13:42:00,
2013-05-17 09:52:00,58.0,38.0,-100.00,NNW,345,4.0,15.0,48,0.00,,,-99.99,,2013-05-17 13:52:00,
2013-05-17 10:02:00,58.0,39.0,-100.00,NE,50,6.0,16.0,48,0.00,,,-99.99,,2013-05-17 14:02:00,
2013-05-17 10:13:00,58.0,38.0,-100.00,NE,55,8.0,17.0,48,0.00,,,-99.99,,2013-05-17 14:13:00,
2013-05-17 10:22:00,58.0,38.0,-100.00,ENE,70,12.0,21.0,46,0.00,,,-99.99,,2013-05-17 14:22:00,
2013-05-17 10:34:00,59.0,39.0,-100.00,NE,55,9.0,16.0,46,0.00,,,-99.99,,2013-05-17 14:34:00,
2013-05-17 10:43:00,60.0,40.0,-100.00,ENE,65,5.0,17.0,46,0.00,,,-99.99,,2013-05-17 14:43:00,
2013-05-17 10:53:00,60.0,40.0,-100.00,NE,45,7.0,15.0,47,0.00,,,-99.99,,2013-05-17 14:53:00,
2013-05-17 11:03:00,60.0,40.0,-100.00,NNE,25,6.0,12.0,46,0.00,,,-99.99,,2013-05-17 15:03:00,
2013-05-17 11:14:00,61.0,39.0,-100.00,North,355,7.0,21.0,45,0.00,,,-99.99,,2013-05-17 15:14:00,
2013-05-17 11:25:00,61.0,40.0,-100.00,East,80,4.0,14.0,45,0.00,,,-99.99,,2013-05-17 15:25:00,
2013-05-17 11:37:00,62.0,39.0,-100.00,NE,55,7.0,17.0,42,0.00,,,-99.99,,2013-05-17 15:37:00,
2013-05-17 11:47:00,61.0,39.0,-100.00,ENE,70,9.0,17.0,44,0.00,,,-99.99,,2013-05-17 15:47:00,
2013-05-17 11:56:00,61.0,40.0,-100.00,NNE,15,4.0,17.0,46,0.00,,,-99.99,,2013-05-17 15:56:00,
2013-05-17 12:07:00,62.0,40.0,-100.00,ENE,75,7.0,16.0,43,0.00,,,-99.99,,2013-05-17 16:07:00,
2013-05-17 12:14:00,62.0,39.0,-100.00,East,90,6.0,19.0,42,0.00,,,-99.99,,2013-05-17 16:14:00,
2013-05-17 12:26:00,62.0,38.0,-100.00,NE,35,9.0,16.0,41,0.00,,,-99.99,,2013-05-17 16:26:00,
2013-05-17 12:37:00,62.0,39.0,-100.00,ENE,75,6.0,24.0,41,0.00,,,-99.99,,2013-05-17 16:37:00,
2013-05-17 12:49:00,63.0,38.0,-100.00,NE,55,8.0,15.0,40,0.00,,,-99.99,,2013-05-17 16:49:00,
2013-05-17 12:56:00,62.0,38.0,-100.00,NNW,330,3.0,16.0,42,0.00,,,-99.99,,2013-05-17 16:56:00,
2013-05-17 13:08:00,63.0,38.0,-100.00,ENE,75,5.0,17.0,39,0.00,,,-99.99,,2013-05-17 17:08:00,
2013-05-17 13:19:00,64.0,39.0,-100.00,ENE,70,2.0,12.0,40,0.00,,,-99.99,,2013-05-17 17:19:00,
2013-05-17 13:30:00,63.0,38.0,-100.00,NNW,340,4.0,17.0,39,0.00,,,-99.99,,2013-05-17 17:30:00,
2013-05-17 13:40:00,63.0,-99.9,-100.00,NE,55,4.0,14.0,39,0.00,,,-99.99,,2013-05-17 17:40:00,
2013-05-17 13:49:00,63.0,39.0,-100.00,ENE,65,6.0,13.0,41,0.00,,,-99.99,,2013-05-17 17:49:00,
2013-05-17 14:00:00,64.0,37.0,-100.00,NNW,335,8.0,16.0,37,0.00,,,-99.99,,2013-05-17 18:00:00,
2013-05-17 14:09:00,65.0,38.0,-100.00,NNW,340,6.0,14.0,37,0.00,,,-99.99,,2013-05-17 18:09:00,
2013-05-17 14:20:00,65.0,38.0,-100.00,ENE,65,9.0,13.0,37,0.00,,,-99.99,,2013-05-17 18:20:00,
2013-05-17 14:30:00,65.0,38.0,-100.00,NNW,335,9.0,16.0,36,0.00,,,-99.99,,2013-05-17 18:30:00,
2013-05-17 14:40:00,64.0,-99.9,-100.00,ENE,70,10.0,17.0,36,0.00,,,-99.99,,2013-05-17 18:40:00,
2013-05-17 14:50:00,-999.0,-99.9,-100.00,ENE,60,4.0,17.0,34,0.00,,,-99.99,,2013-05-17 18:50:00,
2013-05-17 15:00:00,67.0,39.0,-100.00,ENE,70,4.0,21.0,36,0.00,,,-99.99,,2013-05-17 19:00:00,
2013-05-17 15:10:00,66.0,36.0,-100.00,ENE,60,6.0,15.0,33,0.00,,,-99.99,,2013-05-17 19:10:00,
2013-05-17 15:20:00,66.0,36.0,-100.00,ENE,60,7.0,21.0,32,0.00,,,-99.99,,2013-05-17 19:20:00,
2013-05-17 15:30:00,66.0,36.0,-100.00,ENE,65,9.0,17.0,32,0.00,,,-99.99,,2013-05-17 19:30:00,
2013-05-17 15:40:00,67.0,36.0,-100.00,East,90,4.0,16.0,30,0.00,,,-99.99,,2013-05-17 19:40:00,
2013-05-17 15:51:00,67.0,36.0,-100.00,ENE,60,5.0,17.0,31,0.00,,,-99.99,,2013-05-17 19:51:00,
2013-05-17 16:00:00,67.0,-99.9,-100.00,East,80,7.0,19.0,30,0.00,,,-99.99,,2013-05-17 20:00:00,
2013-05-17 16:10:00,68.0,35.0,-100.00,NE,45,6.0,17.0,29,0.00,,,-99.99,,2013-05-17 20:10:00,
2013-05-17 16:20:00,68.0,34.0,-100.00,North,5,4.0,17.0,27,0.00,,,-99.99,,2013-05-17 20:20:00,
2013-05-17 16:30:00,68.0,34.0,-100.00,NNW,345,7.0,17.0,28,0.00,,,-99.99,,2013-05-17 20:30:00,
2013-05-17 16:40:00,69.0,34.0,-100.00,NE,35,6.0,11.0,28,0.00,,,-99.99,,2013-05-17 20:40:00,
2013-05-17 16:50:00,70.0,33.0,-100.00,NNW,335,8.0,17.0,25,0.00,,,-99.99,,2013-05-17 20:50:00,
2013-05-17 16:58:00,69.0,34.0,-100.00,North,5,5.0,12.0,27,0.00,,,-99.99,,2013-05-17 20:58:00,
2013-05-17 17:07:00,69.0,34.0,-100.00,North,0,5.0,21.0,27,0.00,,,-99.99,,2013-05-17 21:07:00,
2013-05-17 17:17:00,69.0,35.0,-100.00,NNW,345,5.0,16.0,28,0.00,,,-99.99,,2013-05-17 21:17:00,
2013-05-17 17:26:00,69.0,35.0,-100.00,NE,55,3.0,11.0,28,0.00,,,-99.99,,2013-05-17 21:26:00,
2013-05-17 17:39:00,68.0,34.0,-100.00,NE,45,5.0,16.0,28,0.00,,,-99.99,,2013-05-17 21:39:00,
2013-05-17 17:49:00,68.0,32.0,-100.00,ENE,65,5.0,12.0,26,0.00,,,-99.99,,2013-05-17 21:49:00,
2013-05-17 17:57:00,68.0,33.0,-100.00,ENE,60,4.0,11.0,27,0.00,,,-99.99,,2013-05-17 21:57:00,
2013-05-17 18:07:00,69.0,34.0,-100.00,ENE,75,4.0,14.0,28,0.00,,,-99.99,,2013-05-17 22:07:00,
2013-05-17 18:17:00,68.0,33.0,-100.00,ENE,70,6.0,13.0,27,0.00,,,-99.99,,2013-05-17 22:17:00,
2013-05-17 18:28:00,68.0,33.0,-100.00,East,80,6.0,12.0,27,0.00,,,-99.99,,2013-05-17 22:28:00,
2013-05-17 18:38:00,68.0,34.0,-100.00,East,80,2.0,11.0,28,0.00,,,-99.99,,2013-05-17 22:38:00,
2013-05-17 18:47:00,67.0,34.0,-100.00,ENE,70,4.0,14.0,29,0.00,,,-99.99,,2013-05-17 22:47:00,
2013-05-17 18:55:00,66.0,31.0,-100.00,ENE,60,8.0,13.0,27,0.00,,,-99.99,,2013-05-17 22:55:00,
2013-05-17 19:04:00,66.0,33.0,-100.00,NE,55,2.0,13.0,29,0.00,,,-99.99,,2013-05-17 23:04:00,
2013-05-17 19:13:00,67.0,32.0,-100.00,ENE,70,2.0,13.0,27,0.00,,,-99.99,,2013-05-17 23:13:00,
2013-05-17 19:23:00,67.0,33.0,-100.00,NE,50,1.0,10.0,28,0.00,,,-99.99,,2013-05-17 23:23:00,
2013-05-17 19:37:00,67.0,34.0,-100.00,East,80,1.0,6.0,29,0.00,,,-99.99,,2013-05-17 23:37:00,
2013-05-17 19:47:00,66.0,33.0,-100.00,North,0,2.0,12.0,29,0.00,,,-99.99,,2013-05-17 23:47:00,
2013-05-17 19:54:00,65.0,34.0,-100.00,NE,55,2.0,8.0,30,0.00,,,-99.99,,2013-05-17 23:54:00,
2013-05-17 20:02:00,64.0,34.0,-100.00,ENE,65,2.0,6.0,31,0.00,,,-99.99,,2013-05-18 00:02:00,
2013-05-17 20:14:00,63.0,34.0,-100.00,NE,55,3.0,6.0,32,0.00,,,-99.99,,2013-05-18 00:14:00,
2013-05-17 20:22:00,63.0,35.0,-100.00,NE,45,2.0,4.0,34,0.00,,,-99.99,,2013-05-18 00:22:00,
2013-05-17 20:34:00,62.0,36.0,-100.00,East,90,1.0,4.0,37,0.00,,,-99.99,,2013-05-18 00:34:00,
2013-05-17 20:45:00,60.0,38.0,-100.00,East,90,0.0,2.0,44,0.00,,,-99.99,,2013-05-18 00:45:00,
2013-05-17 20:54:00,58.0,37.0,-100.00,South,180,0.0,2.0,44,0.00,,,-99.99,,2013-05-18 00:54:00,
2013-05-17 21:03:00,58.0,38.0,-100.00,West,270,0.0,2.0,48,0.00,,,-99.99,,2013-05-18 01:03:00,
2013-05-17 21:13:00,57.0,38.0,-100.00,WSW,250,1.0,2.0,47,0.00,,,-99.99,,2013-05-18 01:13:00,
2013-05-17 21:24:00,56.0,39.0,-100.00,SW,225,1.0,2.0,51,0.00,,,-99.99,,2013-05-18 01:24:00,
2013-05-17 21:32:00,55.0,40.0,-100.00,SSW,195,1.0,3.0,55,0.00,,,-99.99,,2013-05-18 01:32:00,
2013-05-17 21:43:00,55.0,40.0,-100.00,South,180,1.0,3.0,57,0.00,,,-99.99,,2013-05-18 01:43:00,
2013-05-17 21:52:00,55.0,40.0,-100.00,SSW,205,4.0,6.0,57,0.00,,,-99.99,,2013-05-18 01:52:00,
2013-05-17 22:03:00,56.0,41.0,-100.00,WNW,290,2.0,6.0,57,0.00,,,-99.99,,2013-05-18 02:03:00,
2013-05-17 22:12:00,55.0,42.0,-100.00,South,180,1.0,4.0,61,0.00,,,-99.99,,2013-05-18 02:12:00,
2013-05-17 22:23:00,54.0,42.0,-100.00,SSW,210,1.0,2.0,63,0.00,,,-99.99,,2013-05-18 02:23:00,
2013-05-17 22:32:00,53.0,42.0,-100.00,East,80,1.0,3.0,65,0.00,,,-99.99,,2013-05-18 02:32:00,
2013-05-17 22:42:00,53.0,42.0,-100.00,South,180,1.0,3.0,66,0.00,,,-99.99,,2013-05-18 02:42:00,
2013-05-17 22:53:00,52.0,42.0,-100.00,SW,225,1.0,2.0,67,0.00,,,-99.99,,2013-05-18 02:53:00,
2013-05-17 23:03:00,51.0,42.0,-100.00,SSW,195,1.0,2.0,69,0.00,,,-99.99,,2013-05-18 03:03:00,
2013-05-17 23:12:00,51.0,42.0,-100.00,West,260,0.0,2.0,70,0.00,,,-99.99,,2013-05-18 03:12:00,
2013-05-17 23:23:00,50.0,42.0,-100.00,ESE,120,0.0,1.0,71,0.00,,,-99.99,,2013-05-18 03:23:00,
2013-05-17 23:33:00,50.0,41.0,-100.00,NE,45,0.0,2.0,73,0.00,,,-99.99,,2013-05-18 03:33:00,
2013-05-17 23:43:00,49.0,41.0,-100.00,SSW,195,0.0,2.0,73,0.00,,,-99.99,,2013-05-18 03:43:00,
2013-05-17 23:53:00,49.0,41.0,-100.00,SSW,205,1.0,3.0,74,0.00,,,-99.99,,2013-05-18 03:53:00,